Location: Igri�s
(42.2144°N, 0.4320°W)
Time: 17:25:42
(UTC+00:00)

Cosmos 2333 Rocket - Pass Details

Date: 13 August 2020
Orbit: 837 x 864 km, 70.8° (Epoch: 17 September)

Event Time Altitude Azimuth Distance (km) Brightness Sun altitude
Rises 23:14:55 0° 334° (NNW) 3,452 6.4 -32.3°
Reaches altitude 10° 23:17:24 10° 333° (NNW) 2,510 5.5 -32.4°
Enters shadow 23:21:46 53° 321° (NW) 1,055 2.8 -32.6°
